Regional Weather Roundup
Issued by NWS

Home | Current Version | Previous Version | Graphics & Text | Print | Product List | Glossary On
Versions: 1 2 3 4 5 6 7 8 9 10 11 12 13 14 15 16 17 18 19 20 21 22 23 24 25 26 27 28 29 30 31 32 33 34 35 36 37 38 39 40 41 42 43 44 45 46 47 48 49 50
000
ASUS43 KOAX 260410
RWRNE

WEATHER ROUNDUP FOR NEBRASKA
NATIONAL WEATHER SERVICE OMAHA NE
1100 PM CDT SUN JUN 25 2017

NOTES: SATELLITE DATA IS BEING USED TO AUGMENT CLOUD COVER ABOVE
       12000 FEET.
       "FAIR" INDICATES FEW OR NO CLOUDS BELOW 12,000 FEET WITH NO
       SIGNIFICANT WEATHER AND/OR OBSTRUCTIONS TO VISIBILITY.

  * THESE STATIONS DO NOT REPORT WEATHER SUCH AS RAIN...SNOW OR FOG.

NEZ001>004-019>022-054>056-260500-
NEBRASKA PANHANDLE

CITY           SKY/WX    TMP DP  RH WIND       PRES   REMARKS
SCOTTSBLUFF    CLEAR     66  49  54 S8        30.23R
ALLIANCE       CLEAR     63  48  58 S12       30.22R
CHADRON        MOCLDY    61  44  53 E6        30.21R
GORDON         FAIR      62  48  60 CALM      30.22R
KIMBALL        CLEAR     57  54  88 S8        30.30S
SIDNEY         CLEAR     56  53  90 S8        30.29R
$$

NEZ057>060-069>072-079>082-260500-
SOUTHWEST NEBRASKA

CITY           SKY/WX    TMP DP  RH WIND       PRES   REMARKS
NORTH PLATTE   CLEAR     61  53  75 SW6       30.24R
IMPERIAL       CLEAR     55  51  86 CALM      30.27R
LEXINGTON      CLEAR     60  50  68 S5        30.24S
MCCOOK         PTCLDY    59  54  83 SW3       30.26R
OGALLALA       CLEAR     60  53  77 SW5       30.26R
$$

NEZ005>010-023>029-035>040-094-260500-
NORTH CENTRAL NEBRASKA

CITY           SKY/WX    TMP DP  RH WIND       PRES   REMARKS
VALENTINE      CLOUDY    70  39  32 E8        30.17R
AINSWORTH      RAIN      61  48  62 S9        30.19R
BROKEN BOW     CLEAR     63  48  58 S9        30.21S
O`NEILL        CLOUDY    63  44  50 S6        30.19R
ORD            PTCLDY    60  45  57 S8        30.18S
THEDFORD       CLOUDY    63  54  73 S8        30.22F
$$

NEZ041-046>049-061>064-073>077-083>087-260500-
SOUTH CENTRAL NEBRASKA

CITY           SKY/WX    TMP DP  RH WIND       PRES   REMARKS
GRAND ISLAND   CLEAR     60  49  66 S7        30.22S
AURORA         CLEAR     61  48  62 SW6       30.22S
HASTINGS       CLEAR     61  47  59 S7        30.24S
HEBRON         CLOUDY    61  53  75 S7        30.24S
HOLDREGE       CLEAR     59  50  70 S6        30.25R
KEARNEY *      CLEAR     59  46  63 S6        30.25R
YORK           PTCLDY    59  50  72 SW3       30.22S
$$

NEZ011>018-030>034-042>045-260500-
NORTHEAST NEBRASKA

CITY           SKY/WX    TMP DP  RH WIND       PRES   REMARKS
NORFOLK        PTCLDY    63  42  46 S10       30.18S
ALBION         MOCLDY    63  43  48 CALM      30.20R
BLAIR          CLEAR     64  45  50 SE5       30.19F
FREMONT        CLEAR     63  46  53 SE5       30.19F
TEKAMAH        CLEAR     58  39  49 S6        30.18S
WAYNE          PTCLDY    58  44  58 CALM      30.18S
$$

NEZ050>053-065>068-078-088>093-260500-
SOUTHEAST NEBRASKA

CITY           SKY/WX    TMP DP  RH WIND       PRES   REMARKS
LINCOLN        PTCLDY    61  48  62 S9        30.21S
OMAHA EPPLEY   PTCLDY    64  46  52 S3        30.19F
BEATRICE       CLEAR     61  51  68 S6        30.22F
FALLS CITY     CLEAR     61  52  72 CALM      30.23S
NEBRASKA CITY  CLEAR     60  51  71 S6        30.22F
PLATTSMOUTH    CLEAR     62  46  55 SE5       30.21S
$$

NEZ044-045-051>053-067-260500-
OMAHA AREA

CITY           SKY/WX    TMP DP  RH WIND       PRES   REMARKS
OMAHA EPPLEY   PTCLDY    64  46  52 S3        30.19F
BLAIR          CLEAR     64  45  50 SE5       30.19F
FREMONT        CLEAR     63  46  53 SE5       30.19F
MILLARD        CLEAR     65  48  55 SE3       30.20S
OFFUTT AFB     CLEAR     56  50  79 CALM      30.19F
PLATTSMOUTH    CLEAR     62  46  55 SE5       30.21S
WAHOO          FAIR      60  44  56 S5        30.20S
$$




USA.gov is the U.S. government's official web portal to all federal, state and local government web resources and services.